Weather reports worldwide

Advertisment
Luqa, Malta (16597): temperature & dewpoint: 13.04.2019 01:00:00 - 19.04.2019 01:00:00 (CEST)Luqa, Malta (16597): wind speed: 13.04.2019 01:00:00 - 19.04.2019 01:00:00 (CEST)Luqa, Malta (16597): wind direction: 13.04.2019 01:00:00 - 19.04.2019 01:00:00 (CEST)Luqa, Malta (16597): reduced air pressure: 13.04.2019 01:00:00 - 19.04.2019 01:00:00 (CEST)Luqa, Malta (16597): visibility: 13.04.2019 01:00:00 - 19.04.2019 01:00:00 (CEST)
Date & Time tt [°C] td [°C] ff [km/h] ff [kn] dd ppp [hPa] vv [km]
19.04.2019 01:00:00 14,0 13,0 15 8 ESE - 10
19.04.2019 00:00:00 15,0 13,0 13 7 ESE - 10
18.04.2019 23:00:00 14,5 12,5 13 7 ESE 1022,6 10
18.04.2019 22:00:00 15,0 12,0 13 7 ESE - 10
18.04.2019 21:00:00 15,0 12,0 11 6 SE - 10
18.04.2019 20:00:00 14,6 11,1 15 8 SE 1020,9 10
18.04.2019 19:00:00 16,0 11,0 15 8 SSE - 10
18.04.2019 18:00:00 17,0 11,0 13 7 SE - 10
18.04.2019 17:00:00 18,2 11,2 13 7 S 1020,5 10
18.04.2019 16:00:00 19,0 11,0 11 6 SE - 10
18.04.2019 15:00:00 19,0 10,0 16 9 SSE - 10
18.04.2019 14:00:00 19,2 9,3 13 7 SSE 1021,2 10
18.04.2019 13:00:00 19,0 9,0 16 9 SE - 10
18.04.2019 12:00:00 18,0 11,0 16 9 ESE - 10
18.04.2019 11:00:00 17,9 11,4 15 8 ESE 1021,6 10
18.04.2019 10:00:00 17,0 12,0 13 7 SE - 10
18.04.2019 09:00:00 17,0 12,0 9 5 E - 10
18.04.2019 08:00:00 14,1 13,3 2 1 - 1020,7 10
18.04.2019 07:00:00 12,0 11,0 2 1 WSW - 10
18.04.2019 06:00:00 11,0 11,0 5 3 NNW - 10
18.04.2019 05:00:00 11,1 10,1 4 2 WNW 1020,2 10
18.04.2019 04:00:00 11,0 10,0 4 2 NNW - 10
18.04.2019 03:00:00 12,0 10,0 4 2 N - 10
18.04.2019 02:00:00 11,9 10,0 5 3 WNW 1020,8 10
18.04.2019 01:00:00 13,0 11,0 2 1 NE - 10
18.04.2019 00:00:00 13,0 10,0 4 2 NW - 10
17.04.2019 23:00:00 13,0 10,5 5 3 W 1021,1 10
17.04.2019 22:00:00 14,0 10,0 4 2 WNW - 10
17.04.2019 21:00:00 14,0 10,0 8 4 WNW - 10
17.04.2019 20:00:00 15,3 10,4 5 3 W 1019,6 10
17.04.2019 19:00:00 16,0 10,0 8 4 SW - 10
17.04.2019 18:00:00 17,0 10,0 9 5 SSW - 10
17.04.2019 17:00:00 17,9 9,7 9 5 W 1019,1 10
17.04.2019 16:00:00 18,0 10,0 13 7 SW - 10
17.04.2019 15:00:00 18,0 9,0 9 5 SW - 10
17.04.2019 14:00:00 18,6 10,6 15 8 SSW 1019,9 10
17.04.2019 13:00:00 18,0 10,0 13 7 SSW - 10
17.04.2019 12:00:00 18,0 10,0 13 7 SSW - 10
17.04.2019 11:00:00 17,2 11,5 11 6 S 1020,2 10
17.04.2019 10:00:00 17,0 12,0 13 7 S - 10
17.04.2019 09:00:00 16,0 12,0 5 3 S - 10
17.04.2019 08:00:00 14,1 12,6 5 3 - 1020,3 10
17.04.2019 07:00:00 12,0 11,0 2 1 SSW - 10
17.04.2019 06:00:00 11,0 10,0 5 3 NW - 10
17.04.2019 05:00:00 10,6 9,2 5 3 NNW 1019,1 10
17.04.2019 04:00:00 11,0 9,0 4 2 E - 10
17.04.2019 03:00:00 12,0 10,0 4 2 S - 10
17.04.2019 02:00:00 12,8 10,0 4 2 S 1019,7 10
17.04.2019 01:00:00 13,0 10,0 8 4 S - 10
17.04.2019 00:00:00 13,0 10,0 5 3 SSW - 10
16.04.2019 23:00:00 13,3 9,7 8 4 S 1020,7 10
16.04.2019 22:00:00 13,0 10,0 9 5 SSW - 10
16.04.2019 21:00:00 14,0 10,0 8 4 S - 10
16.04.2019 20:00:00 14,5 10,4 2 1 SW 1020,6 10
16.04.2019 19:00:00 15,0 10,0 11 6 SSW - 10
16.04.2019 18:00:00 16,0 10,0 11 6 S - 10
16.04.2019 17:00:00 16,9 8,6 13 7 SW 1019,8 10
16.04.2019 16:00:00 17,0 9,0 16 9 SSW - 10
16.04.2019 15:00:00 17,0 9,0 18 10 SW - 10
16.04.2019 14:00:00 17,9 9,7 16 9 SW 1021,0 10
16.04.2019 13:00:00 17,0 10,0 15 8 SW - 10
16.04.2019 12:00:00 17,0 11,0 15 8 SSW - 10
16.04.2019 11:00:00 16,6 10,4 13 7 SW 1021,0 10
16.04.2019 10:00:00 16,0 11,0 9 5 SSW - 10
16.04.2019 09:00:00 16,0 11,0 8 4 WSW - 10
16.04.2019 08:00:00 13,4 11,4 4 2 SW 1019,9 10
16.04.2019 07:00:00 10,0 9,0 5 3 SW - 10
16.04.2019 06:00:00 9,0 8,0 4 2 NNW - 10
16.04.2019 05:00:00 9,8 8,2 4 2 S 1018,5 10
16.04.2019 04:00:00 10,0 8,0 2 1 E - 10
16.04.2019 03:00:00 10,0 8,0 4 2 E - 10
16.04.2019 02:00:00 10,8 8,6 2 1 ENE 1018,4 10
16.04.2019 01:00:00 11,0 9,0 2 1 - - 10
16.04.2019 00:00:00 11,0 8,0 2 1 E - 10
15.04.2019 23:00:00 12,8 8,9 4 2 SE 1018,0 10
15.04.2019 22:00:00 13,0 9,0 8 4 ESE - 10
15.04.2019 21:00:00 13,0 9,0 15 8 N - 10
15.04.2019 20:00:00 14,0 8,3 22 12 NNW 1015,4 10
15.04.2019 19:00:00 15,0 8,0 26 14 NNW - 10
15.04.2019 18:00:00 16,0 8,0 24 13 N - 10
15.04.2019 17:00:00 16,8 9,2 37 20 NNW 1012,6 10
15.04.2019 16:00:00 17,0 8,0 37 20 NW - 10
15.04.2019 15:00:00 16,0 9,0 44 24 NW - 10
15.04.2019 14:00:00 14,9 9,7 50 27 NW 1011,9 10
15.04.2019 13:00:00 14,0 10,0 26 14 NW - 10
15.04.2019 12:00:00 14,0 9,0 34 18 NW - 8
15.04.2019 11:00:00 16,0 8,0 48 26 NNW 1011,6 10
15.04.2019 10:00:00 16,0 7,0 44 24 NW - 10
15.04.2019 09:00:00 15,0 8,0 34 18 NW - 10
15.04.2019 08:00:00 15,8 11,2 37 20 WNW 1010,3 10
15.04.2019 07:00:00 15,0 11,0 31 17 WSW - 10
15.04.2019 06:00:00 15,0 11,0 22 12 W - 10
15.04.2019 05:00:00 14,8 10,8 13 7 WSW 1011,7 10
15.04.2019 04:00:00 15,0 11,0 18 10 WSW - 10
15.04.2019 03:00:00 14,0 10,0 21 11 WSW - 10
15.04.2019 02:00:00 14,2 10,4 15 8 WSW 1014,7 10
15.04.2019 01:00:00 14,0 9,0 18 10 W - 10
15.04.2019 00:00:00 14,0 9,0 11 6 W - 10
14.04.2019 23:00:00 13,5 9,9 16 9 W 1015,9 10
14.04.2019 22:00:00 13,0 9,0 15 8 W - 10
14.04.2019 21:00:00 13,0 10,0 15 8 WNW - 10
14.04.2019 20:00:00 13,9 10,1 26 14 WNW 1015,3 10
14.04.2019 19:00:00 14,0 10,0 22 12 WNW - 10
14.04.2019 18:00:00 15,0 10,0 28 15 WNW - 10
14.04.2019 17:00:00 15,7 10,3 31 17 WNW 1014,9 10
14.04.2019 16:00:00 15,0 11,0 28 15 WNW - 10
14.04.2019 15:00:00 16,0 11,0 26 14 WNW - 10
14.04.2019 14:00:00 17,1 8,9 31 17 NW 1015,5 10
14.04.2019 13:00:00 17,0 10,0 29 16 NW - 10
14.04.2019 12:00:00 16,0 10,0 29 16 NW - 10
14.04.2019 11:00:00 15,5 9,7 26 14 WNW 1015,7 10
14.04.2019 10:00:00 16,0 10,0 24 13 WNW - 10
14.04.2019 09:00:00 14,0 10,0 16 9 WNW - 10
14.04.2019 08:00:00 13,4 9,6 15 8 WNW 1014,8 10
14.04.2019 07:00:00 12,0 9,0 13 7 WNW - 10
14.04.2019 06:00:00 12,0 9,0 16 9 WNW - 10
14.04.2019 05:00:00 12,2 9,7 18 10 WNW 1014,1 10
14.04.2019 04:00:00 12,0 10,0 21 11 WNW - 10
14.04.2019 03:00:00 13,0 11,0 24 13 WNW - 10
14.04.2019 02:00:00 13,1 10,2 18 10 NW 1014,6 10
14.04.2019 01:00:00 13,0 10,0 24 13 NW - 10
14.04.2019 00:00:00 13,0 11,0 22 12 WNW - 10
13.04.2019 23:00:00 13,4 10,4 22 12 WNW 1014,8 10
13.04.2019 22:00:00 13,0 10,0 22 12 NW - 10
13.04.2019 21:00:00 14,0 10,0 22 12 NW - 10
13.04.2019 20:00:00 13,9 10,0 18 10 NW 1013,8 10
13.04.2019 19:00:00 15,0 10,0 31 17 WNW - 10
13.04.2019 18:00:00 15,0 11,0 35 19 WNW - 10
13.04.2019 17:00:00 15,5 9,5 28 15 WNW 1013,6 10
13.04.2019 16:00:00 16,0 10,0 31 17 WNW - 10
13.04.2019 15:00:00 16,0 10,0 29 16 WNW - 10
13.04.2019 14:00:00 16,8 10,7 28 15 W 1013,9 10
13.04.2019 13:00:00 17,0 10,0 31 17 NW - 10
13.04.2019 12:00:00 16,0 10,0 29 16 NW - 10
13.04.2019 11:00:00 15,9 10,9 29 16 WNW 1013,7 10
13.04.2019 10:00:00 16,0 11,0 28 15 WNW - 10
13.04.2019 09:00:00 15,0 11,0 28 15 WNW - 10
13.04.2019 08:00:00 13,7 10,2 24 13 WNW 1012,9 10
13.04.2019 07:00:00 13,0 11,0 16 9 WNW - 10
13.04.2019 06:00:00 13,0 10,0 18 10 WNW - 10
13.04.2019 05:00:00 12,9 10,1 18 10 WNW 1012,7 10
13.04.2019 04:00:00 13,0 10,0 18 10 WNW - 10
13.04.2019 03:00:00 14,0 10,0 21 11 W - 10
13.04.2019 02:00:00 13,3 10,3 15 8 WSW 1013,5 10
13.04.2019 01:00:00 13,0 10,0 13 7 WSW - 10

tt = temperature
td = dewpoint
ff = wind speed
dd = wind direction
ppp = reduced air pressure
vv = visibility

Next stations